Wind_Speed
26 24 21 21 21 21 21 21 19 17 15 15 14 14 14 14 15 15 15 16 16 16 15 15 14 14 14 13 13 13 13 14 15 15 15 15 15 14 13 13 13 13
29 26 24 24 23 23 23 21 20 19 17 16 16 16 16 16 16 16 17 17 16 15 15 14 14 14 13 13 12 12 12 13 14 14 14 15 14 13 13 13 13 13
31 27 27 26 23 23 24 22 21 20 19 19 19 19 18 16 16 17 17 17 16 15 14 14 15 14 13 13 13 13 13 13 14 14 14 13 12 12 12 12 12 12
32 29 28 26 23 25 26 23 21 22 23 22 21 20 18 17 16 17 17 17 15 14 14 15 15 14 14 14 14 14 14 13 13 13 13 13 12 11 12 12 12 12
34 30 29 27 25 26 27 25 23 24 23 20 18 17 17 16 16 16 17 17 16 15 15 16 17 16 16 15 14 14 13 12 12 12 12 12 11 11 11 11 11 12
35 32 30 29 26 25 27 26 23 20 19 18 17 18 18 16 16 17 18 18 17 17 17 18 18 17 16 15 14 13 12 12 12 11 11 11 11 11 11 11 11 11
34 32 29 26 23 25 26 22 18 17 18 20 20 18 18 17 18 18 19 19 19 18 18 18 18 17 15 14 14 13 13 13 13 12 11 11 12 12 12 12 12 11
24 26 25 23 24 27 23 17 17 19 18 20 20 19 19 19 20 19 19 19 20 19 19 18 17 16 14 14 14 14 14 14 13 12 12 12 12 12 12 13 12 11
12 17 21 23 24 25 20 16 19 20 19 21 21 21 21 22 21 20 19 19 20 20 19 18 16 15 15 14 14 14 15 14 13 12 12 12 12 12 13 12 11 11
11 16 19 21 22 21 18 18 20 19 20 22 23 23 23 23 22 21 19 18 20 20 19 17 16 15 14 14 14 15 15 14 13 12 11 12 12 13 13 12 11 10
13 17 18 19 18 17 18 19 19 20 21 22 23 24 24 23 23 22 20 20 20 20 19 17 15 14 14 14 14 14 14 14 14 13 12 12 12 13 12 11 10 9
15 17 17 16 16 16 17 18 18 20 22 23 24 24 25 25 24 23 22 21 20 20 18 16 15 15 15 15 15 14 13 14 14 13 12 12 13 13 12 12 11 9
18 18 16 16 17 17 17 16 18 21 23 24 25 25 26 26 26 24 23 23 21 20 18 17 17 17 17 17 15 14 13 13 13 12 12 12 13 13 12 12 11 10
19 19 18 18 18 17 17 17 18 21 24 24 24 25 25 26 27 26 26 26 24 20 19 18 18 19 18 17 15 13 13 12 11 10 10 11 12 12 12 11 11 10
18 18 18 19 18 17 17 17 18 21 23 23 23 24 24 25 28 27 27 29 25 21 19 19 19 19 18 16 15 14 13 11 9 8 9 10 10 10 10 11 11 11
16 15 15 17 16 16 18 18 17 20 22 22 23 24 24 25 27 27 28 29 25 21 20 20 21 20 19 17 16 15 12 10 9 9 9 9 9 10 10 11 11 11
12 12 12 13 14 15 17 17 17 18 20 21 23 24 24 26 27 28 30 28 24 22 22 22 22 20 19 18 17 15 12 10 10 9 9 10 11 11 11 11 11 11
8 9 9 10 11 13 15 16 17 18 18 20 23 24 24 26 28 29 29 26 23 23 23 23 23 22 20 19 17 15 13 12 12 11 11 12 12 13 12 12 12 12
5 6 8 7 9 12 14 15 16 17 17 18 21 23 25 27 27 27 26 24 23 24 24 25 24 23 21 20 18 16 15 14 14 14 14 14 14 14 13 13 13 13
5 6 8 8 10 11 11 13 14 16 17 18 21 25 25 25 25 25 24 23 23 24 25 26 25 22 21 20 18 16 16 16 16 16 17 16 16 15 14 14 13 12
6 5 7 7 10 12 12 13 14 15 18 20 23 26 26 24 24 24 23 23 24 24 25 26 24 22 21 20 19 18 18 18 18 18 18 18 17 16 14 13 12 12
6 5 6 6 8 12 13 13 15 17 20 22 25 25 25 24 23 23 22 22 23 23 24 25 24 23 22 21 20 19 18 18 18 19 19 18 17 16 15 14 14 13
6 5 5 7 6 8 10 10 13 17 20 21 22 22 23 23 22 21 22 22 21 21 22 23 23 24 23 22 20 19 18 18 18 19 19 19 18 18 17 17 16 16
5 3 4 8 7 3 9 11 13 14 17 21 21 19 20 21 20 20 21 20 20 21 22 23 24 24 23 22 21 20 18 18 19 19 20 20 19 19 18 18 19 18
4 3 3 6 9 6 5 12 16 17 19 21 22 21 20 20 19 20 21 20 21 21 22 23 23 23 22 21 20 20 18 17 18 19 21 21 21 21 20 20 20 19
6 5 5 4 5 6 5 6 13 17 20 21 21 21 22 20 19 21 22 22 22 22 22 22 21 21 20 20 19 18 17 17 18 20 21 21 20 22 23 22 20 19
Wind_Direction
247 250 250 249 250 247 245 247 247 245 238 230 229 227 223 223 221 217 215 215 214 212 213 214 213 214 217 220 221 221 221 220 219 220 222 223 223 223 224 227 231 233
237 236 239 243 245 242 240 241 242 240 233 224 221 219 218 222 221 216 215 214 213 215 218 221 220 214 213 218 222 223 221 219 217 218 221 222 221 220 221 225 227 229
235 229 230 236 240 239 238 238 238 237 231 222 218 215 213 217 220 218 216 215 215 217 219 225 226 217 210 214 219 219 216 216 216 219 221 221 221 220 221 223 223 225
236 230 229 233 238 239 237 238 238 235 230 224 220 216 211 212 217 219 218 218 217 218 219 224 226 219 212 212 215 215 215 216 219 220 221 221 222 223 224 224 224 226
231 229 230 232 236 237 235 235 237 235 233 232 228 223 219 216 216 217 219 220 218 217 216 217 219 218 215 213 213 214 215 219 223 223 223 224 224 225 228 228 227 227
230 229 232 235 236 237 236 235 237 240 240 237 231 224 223 222 220 218 219 220 218 215 213 214 215 216 216 215 214 213 215 220 223 222 223 226 227 227 228 227 225 225
230 230 237 243 244 244 244 241 241 243 238 233 229 223 223 226 224 221 221 221 217 213 212 213 214 214 214 216 216 215 216 220 220 217 217 220 222 223 223 222 220 220
229 231 241 249 247 248 254 253 245 242 236 232 229 223 223 226 225 223 224 223 217 211 211 212 212 212 214 215 216 218 219 220 218 214 212 213 214 216 218 218 215 214
234 237 246 253 253 256 262 256 246 242 236 231 226 222 222 223 223 223 223 223 218 211 208 210 211 213 216 216 216 218 218 217 214 212 210 210 209 212 215 215 212 212
249 249 254 260 261 261 258 252 248 243 236 230 224 221 221 221 221 220 219 220 220 214 208 208 212 215 217 218 215 215 215 213 210 209 210 210 209 211 211 209 208 210
260 259 262 265 263 259 254 251 249 241 234 228 223 221 220 217 216 218 217 216 216 216 211 207 210 215 216 218 217 213 211 211 210 209 209 210 211 211 208 204 205 209
265 264 266 267 265 263 259 254 248 239 229 222 220 221 221 215 211 214 214 207 208 214 211 206 208 212 213 215 213 210 209 210 210 210 210 209 210 211 210 205 204 205
269 269 268 263 260 263 263 256 247 238 225 218 219 223 220 211 206 208 204 196 202 210 209 206 207 207 208 208 206 205 207 209 211 212 211 209 209 210 210 208 205 204
272 271 268 262 256 256 257 250 243 235 222 215 220 225 222 209 200 201 198 193 199 207 205 205 205 203 204 204 201 202 205 206 208 209 210 212 212 211 210 209 206 206
277 271 264 258 253 250 248 242 236 228 218 214 220 226 223 209 200 200 197 192 197 205 205 203 201 199 200 199 197 200 202 201 201 201 204 208 210 210 210 210 209 212
286 276 258 247 245 245 244 240 232 222 217 218 222 222 217 207 202 202 195 190 198 208 205 201 199 197 196 193 194 197 199 200 201 200 201 203 205 207 210 212 213 215
288 278 254 237 235 235 235 238 235 224 219 222 221 216 212 207 202 197 192 193 202 207 201 199 198 195 192 191 193 196 198 199 201 203 207 208 206 206 207 209 211 216
298 282 260 235 224 219 220 230 234 226 223 225 219 211 206 200 194 193 195 200 203 201 197 197 194 192 191 193 196 198 197 198 203 207 213 215 212 210 210 209 211 215
316 294 281 248 212 205 211 221 223 216 216 217 207 197 193 191 192 196 200 201 199 195 195 196 194 193 194 195 198 198 197 200 205 208 213 216 216 216 216 214 214 215
325 312 300 263 223 212 213 216 210 203 205 204 193 188 190 192 196 199 198 196 196 195 196 197 198 196 195 196 198 199 200 203 206 208 212 214 216 218 218 217 217 218
336 340 329 286 240 224 218 218 212 204 206 202 191 187 191 194 196 196 193 194 195 195 197 200 201 198 197 198 199 201 204 206 206 209 212 214 216 219 221 220 219 222
338 343 349 323 259 233 223 220 217 212 209 200 188 185 191 195 195 193 193 194 194 195 199 202 202 201 200 201 203 205 207 209 210 211 213 215 216 217 218 218 219 221
348 341 344 339 296 241 223 222 220 213 205 192 183 186 192 194 193 193 194 195 194 197 202 204 204 204 204 204 206 207 209 212 216 216 214 215 217 218 217 216 217 221
6 353 333 335 333 266 214 217 217 208 198 189 188 195 197 194 193 194 196 197 198 200 203 205 208 207 207 207 208 209 213 216 219 220 218 217 219 220 220 220 223 229
19 21 350 331 334 325 234 210 205 204 200 194 195 200 200 197 196 196 197 199 200 202 203 205 208 209 209 211 213 217 220 221 226 230 227 222 223 228 229 227 228 233
11 12 13 355 329 320 295 235 216 212 203 196 201 208 206 204 203 201 202 202 201 200 200 202 207 211 212 214 219 224 226 225 231 234 228 223 228 234 234 231 231 237
Height
3118 3120 3121 3120 3119 3119 3118 3118 3118 3118 3119 3121 3122 3124 3126 3126 3127 3128 3130 3131 3133 3134 3135 3136 3138 3140 3141 3142 3144 3145 3147 3148 3149 3149 3150 3151 3151 3152 3152 3153 3154 3155
3113 3114 3116 3116 3116 3117 3116 3116 3116 3116 3117 3118 3119 3121 3122 3124 3125 3127 3128 3130 3132 3133 3133 3135 3136 3138 3139 3141 3142 3143 3145 3146 3147 3148 3149 3149 3150 3150 3151 3152 3153 3154
3109 3110 3110 3112 3113 3114 3114 3113 3113 3114 3115 3115 3116 3117 3119 3121 3123 3125 3127 3129 3130 3131 3132 3133 3134 3135 3138 3139 3141 3142 3144 3145 3146 3147 3147 3148 3148 3149 3150 3151 3152 3153
3106 3107 3107 3108 3110 3110 3110 3110 3111 3111 3111 3112 3114 3116 3117 3119 3121 3123 3125 3127 3129 3130 3131 3132 3133 3134 3136 3138 3140 3141 3142 3144 3144 3145 3146 3146 3147 3147 3149 3150 3151 3152
3101 3103 3104 3105 3105 3106 3106 3107 3108 3109 3110 3112 3115 3117 3118 3118 3119 3122 3124 3126 3128 3129 3130 3131 3132 3134 3135 3137 3139 3140 3141 3142 3143 3144 3145 3145 3146 3147 3148 3149 3150 3151
3096 3098 3100 3101 3102 3102 3102 3103 3107 3110 3112 3114 3115 3116 3117 3117 3118 3120 3122 3124 3126 3128 3129 3130 3131 3132 3134 3136 3137 3138 3140 3141 3142 3143 3143 3144 3145 3146 3147 3148 3149 3150
3094 3097 3099 3101 3102 3099 3098 3103 3108 3111 3112 3112 3113 3114 3116 3117 3118 3119 3121 3123 3125 3127 3128 3129 3130 3131 3133 3134 3135 3137 3138 3140 3141 3142 3143 3144 3144 3145 3146 3147 3148 3149
3095 3098 3100 3100 3099 3097 3099 3106 3109 3109 3110 3111 3112 3114 3115 3116 3117 3119 3121 3122 3124 3125 3126 3128 3129 3130 3131 3132 3134 3135 3137 3138 3140 3141 3142 3143 3144 3145 3145 3146 3147 3148
3095 3097 3097 3097 3097 3098 3103 3106 3106 3106 3108 3109 3110 3112 3114 3115 3116 3117 3119 3121 3123 3124 3125 3126 3128 3129 3130 3131 3132 3134 3135 3137 3138 3140 3141 3142 3143 3144 3145 3146 3147 3147
3093 3094 3095 3096 3098 3100 3102 3103 3103 3105 3106 3107 3108 3110 3112 3113 3114 3116 3118 3119 3121 3123 3123 3125 3126 3128 3129 3130 3131 3133 3134 3135 3137 3138 3140 3141 3142 3143 3144 3145 3146 3147
3092 3093 3094 3096 3097 3098 3099 3100 3102 3103 3104 3105 3106 3108 3109 3111 3112 3114 3116 3118 3120 3122 3123 3123 3125 3126 3128 3129 3130 3132 3133 3134 3136 3137 3138 3140 3141 3142 3143 3144 3145 3146
3091 3091 3093 3095 3096 3096 3096 3098 3099 3100 3102 3103 3104 3105 3107 3108 3110 3112 3114 3116 3119 3121 3122 3122 3123 3125 3126 3128 3129 3131 3132 3133 3135 3136 3137 3139 3140 3141 3142 3144 3144 3145
3089 3090 3092 3093 3093 3093 3094 3095 3097 3098 3099 3100 3102 3103 3105 3106 3108 3110 3112 3115 3117 3119 3120 3121 3122 3124 3125 3127 3128 3130 3131 3133 3134 3135 3137 3138 3139 3140 3141 3143 3144 3144
3087 3088 3089 3090 3091 3091 3091 3092 3094 3095 3096 3098 3100 3101 3103 3104 3106 3108 3110 3113 3115 3117 3119 3120 3121 3123 3125 3126 3128 3129 3131 3132 3134 3135 3136 3137 3138 3139 3140 3142 3143 3144
3085 3085 3086 3087 3088 3089 3088 3090 3091 3093 3094 3097 3098 3100 3101 3102 3104 3106 3108 3111 3113 3116 3118 3119 3121 3122 3124 3126 3127 3128 3130 3131 3133 3134 3135 3136 3137 3138 3140 3141 3142 3143
3083 3083 3084 3085 3086 3087 3086 3087 3089 3091 3093 3095 3096 3098 3099 3101 3103 3104 3107 3109 3112 3114 3117 3118 3120 3122 3123 3125 3126 3127 3129 3130 3132 3133 3134 3135 3136 3138 3139 3140 3141 3142
3082 3081 3082 3083 3084 3085 3085 3085 3087 3089 3091 3093 3094 3096 3098 3099 3101 3103 3106 3108 3111 3113 3116 3117 3119 3121 3122 3124 3125 3126 3128 3129 3130 3132 3133 3134 3135 3137 3138 3139 3140 3141
3081 3080 3080 3081 3082 3083 3084 3085 3086 3088 3089 3091 3092 3094 3096 3098 3100 3102 3105 3107 3110 3112 3115 3116 3118 3120 3121 3123 3124 3125 3127 3128 3129 3130 3132 3133 3134 3136 3137 3138 3139 3140
3080 3079 3079 3080 3081 3082 3084 3084 3085 3087 3088 3089 3090 3092 3095 3097 3100 3102 3104 3106 3108 3111 3113 3115 3117 3119 3120 3121 3123 3124 3125 3127 3128 3129 3131 3132 3133 3134 3135 3136 3137 3138
3079 3079 3079 3079 3080 3081 3083 3084 3085 3086 3087 3089 3091 3093 3095 3097 3099 3101 3103 3105 3107 3110 3112 3114 3116 3117 3118 3120 3121 3122 3124 3125 3127 3128 3129 3131 3132 3133 3134 3135 3136 3137
3080 3079 3079 3079 3079 3080 3082 3083 3084 3085 3087 3088 3090 3093 3094 3096 3098 3100 3102 3104 3106 3108 3110 3112 3114 3116 3117 3118 3120 3121 3123 3124 3126 3127 3128 3129 3131 3132 3133 3134 3135 3136
3080 3080 3079 3079 3079 3079 3080 3081 3083 3084 3086 3087 3089 3092 3094 3095 3097 3099 3101 3103 3105 3107 3109 3111 3113 3114 3116 3117 3119 3120 3122 3123 3125 3126 3127 3128 3129 3131 3132 3132 3133 3134
3080 3080 3080 3080 3079 3079 3080 3081 3082 3083 3085 3087 3089 3091 3093 3094 3096 3097 3100 3102 3104 3106 3108 3110 3112 3113 3115 3116 3118 3120 3121 3123 3124 3125 3126 3127 3128 3129 3130 3131 3132 3132
3080 3080 3080 3080 3080 3080 3081 3082 3082 3083 3085 3087 3089 3091 3092 3094 3095 3097 3099 3101 3103 3105 3107 3109 3111 3113 3114 3115 3117 3118 3120 3121 3122 3123 3125 3126 3127 3127 3128 3129 3130 3131
3080 3080 3080 3080 3080 3081 3082 3082 3083 3084 3085 3087 3089 3091 3092 3094 3095 3097 3098 3100 3102 3104 3106 3108 3110 3112 3113 3114 3116 3117 3118 3119 3121 3121 3122 3123 3124 3125 3125 3126 3127 3129
3080 3080 3080 3081 3081 3081 3082 3083 3083 3084 3085 3087 3089 3090 3092 3094 3095 3097 3098 3099 3101 3103 3105 3107 3109 3110 3112 3113 3115 3116 3117 3118 3119 3120 3120 3121 3122 3123 3123 3123 3125 3126